Showing default

YAOGAN-39 01C, 57731

Orbit data source: Space-Track

YAOGAN-39 01C, 57731 is a payload satellite owned by PLA GAD (CN) in LEO that was launched on Thu, 31 Aug 2023 UTC via a CHANG ZHENG 2D launch vehicle from the Xichang Space Center, China (XSC). Payloads include a variety of satellites, spacecraft, and rockets equipped with specific instruments for various scientific and technological missions. These include communications satellites like Starlink; space stations such as the ISS; scientific satellites like the Hubble; Earth observation satellites from companies like Planet Labs, Umbra, and HawkEye 360; GPS; miniature CubeSats for education and research; and military/defense satellites.

Loading next visibility...
YAOGAN-39 01C details
Identifier
57731, 2023-130E
Orbit
LEO
Last TLE update11 hours ago
Origin
Flag of CNPLA GAD (CN / PRC)
ManufacturerDFH
MissionOperational Defense Sigint
Bus & MotorUnknown
Mass~300 kg wet, ~300 kg dry
Launch date (UTC)
2023-08-31 (1 year ago)
Launch vehicle
CHANG ZHENG 2D
Launch site
Xichang Space Center, China (XSC)
Object type
Payload
Rocket body
Debris
Shape & HBRBox + 2 Pan, 5 m
Radar Cross Section11.063 m², Large (>1 m²)

Expand to show TLE details & history

TLE from 11 hours ago
0 YAOGAN-39 01C
1 57731U 23130E   24356.30504133  .00026232  00000-0  10942-2 0  9994
2 57731  34.9956 302.6713 0001080 146.1639 213.9144 15.22764751 72892
Epoch: 2024-12-21T07:19Z
Definitive object data (Epoch: 2024-12-21T07:19:15.57Z)
Latitude-0.00006°
Longitude102.49822°
Altitude497.029 km
Speed7.618 km/s
True Right ascension20h 10m 41s
True Declination0° 00' 00"
Sunlit
Object was in daylight at TLE epoch
Visualization TLE readout
Latitude-22.85757°
Longitude62.87716°
Altitude502.678 km
Speed7.614 km/s
Apparent Right ascension18h 38m 38s
Apparent Declination-77° 12' 17"
Sunlit
Object is in daylight
Visualization observer readout
Local Sidereal Time17:11:44
Azimuth174.677° S
Elevation-27.9°
Doppler factor1
Orbital elements
Apogee altitude501.499 km
Perigee altitude500.013 km
Semi-major axis6,878.893 km
Eccentricity0.000108
Inclination34.9956°
RAAN302.6713°
Arg. of periapsis146.1639°
True anomaly213.9075°
Mean anomaly213.9144°
Eccentric anomaly213.91095°
Mean motion3.80422 °/min
BSTAR0.0010942
Orbital period94.63 mins
Loading maneuver chart data...
Loading historical data...
Loading historical data...
Loading historical data...
Loading historical data...
Loading historical data...
Loading historical data...
Loading historical data...

YAOGAN-39 01C Visibility forecast

Observer location: undefined°, undefined

Span
Click to sort rows by Start time (UTC) header in descending order
Start Az.
Max El. time (UTC)
Max El. Az.
Max El.
End time (UTC)
End Az.
5 mins2024-12-22 00:52:59.907Z215.008° SW2024-12-22 00:55:59.907Z156.556° SSE22.449°2024-12-22 00:57:59.907Z117.147° SE
5 mins2024-12-22 02:32:59.907Z236.421° WSW2024-12-22 02:34:59.907Z185.801° SSW31.899°2024-12-22 02:37:59.907Z113.984° SE
4 mins2024-12-22 04:12:59.907Z234.779° WSW2024-12-22 04:14:59.907Z182.898° SSW25.323°2024-12-22 04:16:59.907Z142.097° SSE
|